Weather in Dichnya

Russia / Kursk Oblast     51°39′33″N   35°43′40″E
temp.,
°C
wind,
m/s
gust,
m/s
humid.,
%
clouds,
%
prec.,
mm/h
press.,
hPa
HPBL,
m
28 september, tue
tue2800:00+7n4993100 0.0 1023355
03:00+6n3797100 0.0 1023233
06:00+8n4893100 0.0 1023374
09:00+8nne489198 0.1 1024460
12:00+9ne5781100 0.2 1026693
15:00+11ne566982 0.3 10261076
18:00+8ne587998 0.1 1028585
21:00+7ne5982100 0.1 1030632
29 september, wed
wed2900:00+7ene4879100 0.0 1031500
03:00+6ene4780100 0.0 1032424
06:00+6ne4781100 0.0 1033399
09:00+7ene58685 0.0 1034639
12:00+10ene56505 0.0 10331183
15:00+12ene45444 0.0 10321326
18:00+8ne36591 0.0 103399
21:00+6ne356838 0.0 103469
30 september, thu
thu3000:00+5ene227275 0.0 103426
03:00+4ne227593 0.0 103512
06:00+3ne22795 0.0 103519
09:00+7ne34655 0.0 1035253
12:00+11ene33511 0.0 1035963
15:00+13ne33497 0.0 10341273
18:00+10ne33665 0.0 103331
21:00+7ene35771 0.0 103487
1 october, fri
fri100:00+6e23790 0.0 103534
03:00+5e22820 0.0 103616
06:00+4ene22855 0.0 103615
09:00+8e23695 0.0 1036230
12:00+12ese33510 0.0 1036923
15:00+14ese23450 0.0 10351229
18:00+11e22585 0.0 103414
21:00+9ese22665 0.0 103518
2 october, sat
sat200:00+7se22735 0.0 103524
03:00+6se22755 0.0 103513
06:00+6ese22785 0.0 103513
09:00+9se236546 0.0 1035196
12:00+13ese345216 0.0 1034903
15:00+15ese445081 0.0 10321397
18:00+11ese3664100 0.0 1032190
21:00+10ese3669100 0.0 1033199